Time,TemperatureF,DewpointF,PressureIn,WindDirection,WindDirectionDegrees,WindSpeedMPH,WindSpeedGustMPH,Humidity,HourlyPrecipIn,Conditions,Clouds,dailyrainin,SoftwareType,DateUTC
2013-02-03 00:03:00,24.0,23.0,30.04,SSE,160,0.0,-999.0,94,-99.99,,,-99.99,,2013-02-03 05:03:00,
2013-02-03 00:12:00,24.0,23.0,30.04,SSE,160,0.0,-999.0,94,-99.99,,,-99.99,,2013-02-03 05:12:00,
2013-02-03 00:22:00,24.0,23.0,30.04,SSE,160,0.0,-999.0,94,-99.99,,,-99.99,,2013-02-03 05:22:00,
2013-02-03 00:32:00,24.0,23.0,30.03,SSE,159,0.0,-999.0,95,-99.99,,,-99.99,,2013-02-03 05:32:00,
2013-02-03 00:42:00,24.0,23.0,30.03,SSE,159,0.0,-999.0,95,-99.99,,,-99.99,,2013-02-03 05:42:00,
2013-02-03 00:52:00,24.0,23.0,30.03,SSE,159,0.0,-999.0,95,-99.99,,,-99.99,,2013-02-03 05:52:00,
2013-02-03 01:02:00,24.0,23.0,30.02,SSE,159,0.0,-999.0,95,-99.99,,,-99.99,,2013-02-03 06:02:00,
2013-02-03 01:11:00,24.0,23.0,30.02,SSE,159,0.0,-999.0,95,-99.99,,,-99.99,,2013-02-03 06:11:00,
2013-02-03 01:21:00,24.0,23.0,30.02,SSE,159,0.0,-999.0,95,-99.99,,,-99.99,,2013-02-03 06:21:00,
2013-02-03 01:32:00,24.0,23.0,30.02,SSE,159,0.0,-999.0,95,-99.99,,,-99.99,,2013-02-03 06:32:00,
2013-02-03 01:42:00,24.0,23.0,30.02,SSE,159,0.0,-999.0,95,-99.99,,,-99.99,,2013-02-03 06:42:00,
2013-02-03 01:52:00,24.0,23.0,30.01,SSE,159,0.0,-999.0,95,-99.99,,,-99.99,,2013-02-03 06:52:00,
2013-02-03 02:01:00,25.0,24.0,30.00,SSE,159,0.0,-999.0,96,-99.99,,,-99.99,,2013-02-03 07:01:00,
2013-02-03 02:11:00,25.0,24.0,30.00,SSE,159,0.0,-999.0,96,-99.99,,,-99.99,,2013-02-03 07:11:00,
2013-02-03 02:21:00,26.0,25.0,30.00,SSE,159,0.0,-999.0,96,-99.99,,,-99.99,,2013-02-03 07:21:00,
2013-02-03 02:32:00,25.0,24.0,29.99,SSE,159,0.0,-999.0,94,-99.99,,,-99.99,,2013-02-03 07:32:00,
2013-02-03 02:42:00,25.0,24.0,29.99,SSE,159,0.0,-999.0,94,-99.99,,,-99.99,,2013-02-03 07:42:00,
2013-02-03 02:52:00,25.0,24.0,29.99,SSE,159,0.0,-999.0,95,-99.99,,,-99.99,,2013-02-03 07:52:00,
2013-02-03 03:02:00,24.0,23.0,29.98,SSE,159,0.0,-999.0,95,-99.99,,,-99.99,,2013-02-03 08:02:00,
2013-02-03 03:11:00,24.0,23.0,29.98,SSE,159,0.0,-999.0,95,-99.99,,,-99.99,,2013-02-03 08:11:00,
2013-02-03 03:22:00,24.0,23.0,29.98,SSE,159,0.0,-999.0,95,-99.99,,,-99.99,,2013-02-03 08:22:00,
2013-02-03 03:32:00,24.0,23.0,29.97,SSE,159,0.0,-999.0,95,-99.99,,,-99.99,,2013-02-03 08:32:00,
2013-02-03 03:42:00,24.0,23.0,29.97,SSE,159,0.0,-999.0,95,-99.99,,,-99.99,,2013-02-03 08:42:00,
2013-02-03 03:52:00,24.0,23.0,29.96,South,182,0.0,-999.0,95,-99.99,,,-99.99,,2013-02-03 08:52:00,
2013-02-03 04:03:00,24.0,23.0,29.96,South,189,0.0,-999.0,94,-99.99,,,-99.99,,2013-02-03 09:03:00,
2013-02-03 04:11:00,24.0,23.0,29.96,South,189,0.0,-999.0,94,-99.99,,,-99.99,,2013-02-03 09:11:00,
2013-02-03 04:22:00,24.0,23.0,29.95,South,190,0.0,-999.0,94,-99.99,,,-99.99,,2013-02-03 09:22:00,
2013-02-03 04:32:00,24.0,23.0,29.95,South,190,0.0,-999.0,94,-99.99,,,-99.99,,2013-02-03 09:32:00,
2013-02-03 04:42:00,24.0,23.0,29.95,South,190,0.0,-999.0,94,-99.99,,,-99.99,,2013-02-03 09:42:00,
2013-02-03 04:52:00,24.0,23.0,29.95,SSW,195,0.0,-999.0,94,-99.99,,,-99.99,,2013-02-03 09:52:00,
2013-02-03 05:01:00,24.0,23.0,29.94,SSW,211,0.0,-999.0,94,-99.99,,,-99.99,,2013-02-03 10:01:00,
2013-02-03 05:11:00,24.0,23.0,29.94,SSW,211,0.0,-999.0,94,-99.99,,,-99.99,,2013-02-03 10:11:00,
2013-02-03 05:21:00,24.0,23.0,29.94,NW,319,0.0,-999.0,94,-99.99,,,-99.99,,2013-02-03 10:21:00,
2013-02-03 05:32:00,23.0,21.0,29.93,NW,310,0.0,-999.0,93,-99.99,,,-99.99,,2013-02-03 10:32:00,
2013-02-03 05:42:00,23.0,21.0,29.93,NW,310,0.0,-999.0,93,-99.99,,,-99.99,,2013-02-03 10:42:00,
2013-02-03 05:52:00,23.0,21.0,29.94,NW,311,0.0,-999.0,93,-99.99,,,-99.99,,2013-02-03 10:52:00,
2013-02-03 06:02:00,23.0,21.0,29.94,NW,313,0.0,-999.0,93,-99.99,,,-99.99,,2013-02-03 11:02:00,
2013-02-03 06:11:00,23.0,21.0,29.94,NW,313,0.0,-999.0,93,-99.99,,,-99.99,,2013-02-03 11:11:00,
2013-02-03 06:22:00,23.0,21.0,29.94,NW,313,0.0,-999.0,93,-99.99,,,-99.99,,2013-02-03 11:22:00,
2013-02-03 06:32:00,23.0,21.0,29.94,NW,313,0.0,-999.0,93,-99.99,,,-99.99,,2013-02-03 11:32:00,
2013-02-03 06:42:00,23.0,21.0,29.94,NW,313,0.0,-999.0,93,-99.99,,,-99.99,,2013-02-03 11:42:00,
2013-02-03 06:52:00,23.0,21.0,29.94,NW,313,0.0,-999.0,93,-99.99,,,-99.99,,2013-02-03 11:52:00,
2013-02-03 07:02:00,22.0,20.0,29.94,NW,313,0.0,-999.0,93,-99.99,,,-99.99,,2013-02-03 12:02:00,
2013-02-03 07:12:00,22.0,20.0,29.94,NW,313,0.0,-999.0,93,-99.99,,,-99.99,,2013-02-03 12:12:00,
2013-02-03 07:22:00,22.0,20.0,29.94,NW,313,0.0,-999.0,92,-99.99,,,-99.99,,2013-02-03 12:22:00,
2013-02-03 07:32:00,21.0,19.0,29.94,NW,313,0.0,-999.0,93,-99.99,,,-99.99,,2013-02-03 12:32:00,
2013-02-03 07:42:00,21.0,19.0,29.94,NW,313,0.0,-999.0,93,-99.99,,,-99.99,,2013-02-03 12:42:00,
2013-02-03 07:53:00,21.0,19.0,29.95,NW,313,0.0,-999.0,93,-99.99,,,-99.99,,2013-02-03 12:53:00,
2013-02-03 08:03:00,21.0,19.0,29.95,NW,313,0.0,-999.0,93,-99.99,,,-99.99,,2013-02-03 13:03:00,
2013-02-03 08:11:00,21.0,19.0,29.95,NW,313,0.0,-999.0,93,-99.99,,,-99.99,,2013-02-03 13:11:00,
2013-02-03 08:22:00,21.0,19.0,29.95,NW,313,0.0,-999.0,93,-99.99,,,-99.99,,2013-02-03 13:22:00,
2013-02-03 08:32:00,21.0,19.0,29.96,NW,315,0.0,-999.0,93,-99.99,,,-99.99,,2013-02-03 13:32:00,
2013-02-03 08:42:00,21.0,19.0,29.96,NW,315,0.0,-999.0,93,-99.99,,,-99.99,,2013-02-03 13:42:00,
2013-02-03 08:52:00,21.0,19.0,29.96,NW,315,0.0,-999.0,93,-99.99,,,-99.99,,2013-02-03 13:52:00,
2013-02-03 09:03:00,22.0,21.0,29.96,NW,321,0.0,-999.0,94,-99.99,,,-99.99,,2013-02-03 14:03:00,
2013-02-03 09:12:00,22.0,21.0,29.96,NW,321,0.0,-999.0,94,-99.99,,,-99.99,,2013-02-03 14:12:00,
2013-02-03 09:22:00,22.0,20.0,29.96,NW,321,0.0,-999.0,93,-99.99,,,-99.99,,2013-02-03 14:22:00,
2013-02-03 09:32:00,22.0,20.0,29.95,NNW,339,0.0,-999.0,93,-99.99,,,-99.99,,2013-02-03 14:32:00,
2013-02-03 09:42:00,22.0,20.0,29.95,NNW,339,0.0,-999.0,93,-99.99,,,-99.99,,2013-02-03 14:42:00,
2013-02-03 09:52:00,23.0,23.0,29.95,North,9,0.0,-999.0,100,-99.99,,,-99.99,,2013-02-03 14:52:00,
2013-02-03 10:03:00,24.0,23.0,29.95,North,9,0.0,-999.0,95,-99.99,,,-99.99,,2013-02-03 15:03:00,
2013-02-03 10:12:00,24.0,23.0,29.95,North,9,0.0,-999.0,95,-99.99,,,-99.99,,2013-02-03 15:12:00,
2013-02-03 10:22:00,24.0,22.0,29.95,North,9,0.0,-999.0,92,-99.99,,,-99.99,,2013-02-03 15:22:00,
2013-02-03 10:33:00,25.0,23.0,29.94,North,9,0.0,-999.0,92,-99.99,,,-99.99,,2013-02-03 15:33:00,
2013-02-03 10:42:00,25.0,23.0,29.94,North,9,0.0,-999.0,92,-99.99,,,-99.99,,2013-02-03 15:42:00,
2013-02-03 10:51:00,26.0,24.0,29.94,North,9,0.0,-999.0,91,-99.99,,,-99.99,,2013-02-03 15:51:00,
2013-02-03 11:03:00,27.0,24.0,29.93,North,9,0.0,-999.0,89,-99.99,,,-99.99,,2013-02-03 16:03:00,
2013-02-03 11:11:00,27.0,24.0,29.93,North,9,0.0,-999.0,89,-99.99,,,-99.99,,2013-02-03 16:11:00,
2013-02-03 11:22:00,26.0,23.0,29.93,North,9,0.0,-999.0,89,-99.99,,,-99.99,,2013-02-03 16:22:00,
2013-02-03 11:33:00,26.0,23.0,29.92,North,9,0.0,-999.0,88,-99.99,,,-99.99,,2013-02-03 16:33:00,
2013-02-03 11:42:00,26.0,23.0,29.92,North,9,0.0,-999.0,88,-99.99,,,-99.99,,2013-02-03 16:42:00,
2013-02-03 11:52:00,27.0,24.0,29.91,North,9,0.0,-999.0,88,-99.99,,,-99.99,,2013-02-03 16:52:00,
2013-02-03 12:03:00,26.0,22.0,29.91,North,9,1.0,-999.0,86,-99.99,,,-99.99,,2013-02-03 17:03:00,
2013-02-03 12:11:00,26.0,22.0,29.91,North,9,1.0,-999.0,86,-99.99,,,-99.99,,2013-02-03 17:11:00,
2013-02-03 12:22:00,27.0,24.0,29.89,North,9,1.0,-999.0,87,-99.99,,,-99.99,,2013-02-03 17:22:00,
2013-02-03 12:32:00,27.0,23.0,29.89,North,9,2.0,-999.0,86,-99.99,,,-99.99,,2013-02-03 17:32:00,
2013-02-03 12:42:00,27.0,23.0,29.89,North,9,2.0,-999.0,86,-99.99,,,-99.99,,2013-02-03 17:42:00,
2013-02-03 12:52:00,27.0,23.0,29.88,North,9,1.0,-999.0,84,-99.99,,,-99.99,,2013-02-03 17:52:00,
2013-02-03 13:03:00,27.0,23.0,29.88,North,9,1.0,-999.0,83,-99.99,,,-99.99,,2013-02-03 18:03:00,
2013-02-03 13:12:00,27.0,23.0,29.88,North,9,1.0,-999.0,83,-99.99,,,-99.99,,2013-02-03 18:12:00,
2013-02-03 13:23:00,27.0,23.0,29.87,North,9,1.0,-999.0,84,-99.99,,,-99.99,,2013-02-03 18:23:00,
2013-02-03 13:33:00,28.0,23.0,29.87,North,9,1.0,-999.0,82,-99.99,,,-99.99,,2013-02-03 18:33:00,
2013-02-03 13:42:00,28.0,23.0,29.87,North,9,1.0,-999.0,82,-99.99,,,-99.99,,2013-02-03 18:42:00,
2013-02-03 13:52:00,28.0,23.0,29.86,North,9,3.0,-999.0,81,-99.99,,,-99.99,,2013-02-03 18:52:00,
2013-02-03 14:02:00,28.0,23.0,29.85,NNE,12,3.0,-999.0,80,-99.99,,,-99.99,,2013-02-03 19:02:00,
2013-02-03 14:11:00,28.0,23.0,29.85,NNE,12,3.0,-999.0,80,-99.99,,,-99.99,,2013-02-03 19:11:00,
2013-02-03 14:22:00,28.0,23.0,29.85,NNE,13,3.0,-999.0,80,-99.99,,,-99.99,,2013-02-03 19:22:00,
2013-02-03 14:32:00,28.0,23.0,29.84,NNE,13,2.0,-999.0,80,-99.99,,,-99.99,,2013-02-03 19:32:00,
2013-02-03 14:42:00,28.0,23.0,29.84,NNE,13,2.0,-999.0,80,-99.99,,,-99.99,,2013-02-03 19:42:00,
2013-02-03 14:52:00,28.0,23.0,29.84,NNE,13,2.0,-999.0,81,-99.99,,,-99.99,,2013-02-03 19:52:00,
2013-02-03 15:02:00,29.0,23.0,29.84,NNE,13,1.0,-999.0,78,-99.99,,,-99.99,,2013-02-03 20:02:00,
2013-02-03 15:12:00,29.0,23.0,29.84,NNE,13,1.0,-999.0,78,-99.99,,,-99.99,,2013-02-03 20:12:00,
2013-02-03 15:22:00,29.0,23.0,29.83,North,9,3.0,-999.0,77,-99.99,,,-99.99,,2013-02-03 20:22:00,
2013-02-03 15:33:00,29.0,22.0,29.83,North,9,3.0,-999.0,74,-99.99,,,-99.99,,2013-02-03 20:33:00,
2013-02-03 15:42:00,29.0,22.0,29.83,North,9,3.0,-999.0,74,-99.99,,,-99.99,,2013-02-03 20:42:00,
2013-02-03 15:52:00,29.0,21.0,29.83,ESE,107,4.0,-999.0,73,-99.99,,,-99.99,,2013-02-03 20:52:00,
2013-02-03 16:03:00,29.0,21.0,29.84,ESE,107,4.0,-999.0,73,-99.99,,,-99.99,,2013-02-03 21:03:00,
2013-02-03 16:11:00,29.0,21.0,29.84,ESE,107,4.0,-999.0,73,-99.99,,,-99.99,,2013-02-03 21:11:00,
2013-02-03 16:21:00,29.0,22.0,29.84,SSW,202,4.0,-999.0,74,-99.99,,,-99.99,,2013-02-03 21:21:00,
2013-02-03 16:33:00,29.0,22.0,29.84,WSW,257,5.0,-999.0,75,-99.99,,,-99.99,,2013-02-03 21:33:00,
2013-02-03 16:42:00,29.0,22.0,29.84,WSW,257,5.0,-999.0,75,-99.99,,,-99.99,,2013-02-03 21:42:00,
2013-02-03 16:52:00,28.0,23.0,29.83,West,260,7.0,-999.0,80,-99.99,,,-99.99,,2013-02-03 21:52:00,
2013-02-03 17:02:00,28.0,24.0,29.84,West,260,5.0,-999.0,84,-99.99,,,-99.99,,2013-02-03 22:02:00,
2013-02-03 17:11:00,28.0,24.0,29.84,West,260,5.0,-999.0,84,-99.99,,,-99.99,,2013-02-03 22:11:00,
2013-02-03 17:21:00,27.0,23.0,29.84,West,260,5.0,-999.0,85,-99.99,,,-99.99,,2013-02-03 22:21:00,
2013-02-03 17:32:00,27.0,23.0,29.84,West,260,3.0,-999.0,86,-99.99,,,-99.99,,2013-02-03 22:32:00,
2013-02-03 17:42:00,27.0,23.0,29.84,West,260,3.0,-999.0,86,-99.99,,,-99.99,,2013-02-03 22:42:00,
2013-02-03 17:51:00,27.0,24.0,29.83,West,260,2.0,-999.0,87,-99.99,,,-99.99,,2013-02-03 22:51:00,
2013-02-03 18:02:00,27.0,24.0,29.83,West,260,1.0,-999.0,88,-99.99,,,-99.99,,2013-02-03 23:02:00,
2013-02-03 18:12:00,27.0,24.0,29.83,West,260,1.0,-999.0,88,-99.99,,,-99.99,,2013-02-03 23:12:00,
2013-02-03 18:22:00,27.0,24.0,29.83,West,260,0.0,-999.0,87,-99.99,,,-99.99,,2013-02-03 23:22:00,
2013-02-03 18:32:00,26.0,23.0,29.83,West,260,0.0,-999.0,88,-99.99,,,-99.99,,2013-02-03 23:32:00,
2013-02-03 18:42:00,26.0,23.0,29.83,West,260,0.0,-999.0,88,-99.99,,,-99.99,,2013-02-03 23:42:00,
2013-02-03 18:52:00,25.0,22.0,29.84,West,260,0.0,-999.0,89,-99.99,,,-99.99,,2013-02-03 23:52:00,
2013-02-03 19:02:00,25.0,22.0,29.84,West,260,1.0,-999.0,89,-99.99,,,-99.99,,2013-02-04 00:02:00,
2013-02-03 19:11:00,25.0,22.0,29.84,West,260,1.0,-999.0,89,-99.99,,,-99.99,,2013-02-04 00:11:00,
2013-02-03 19:22:00,25.0,22.0,29.84,West,260,1.0,-999.0,90,-99.99,,,-99.99,,2013-02-04 00:22:00,
2013-02-03 19:32:00,25.0,22.0,29.84,West,260,1.0,-999.0,90,-99.99,,,-99.99,,2013-02-04 00:32:00,
2013-02-03 19:42:00,25.0,22.0,29.84,West,260,1.0,-999.0,90,-99.99,,,-99.99,,2013-02-04 00:42:00,
2013-02-03 19:51:00,25.0,23.0,29.84,West,260,0.0,-999.0,91,-99.99,,,-99.99,,2013-02-04 00:51:00,
2013-02-03 20:01:00,26.0,24.0,29.85,West,260,2.0,-999.0,91,-99.99,,,-99.99,,2013-02-04 01:01:00,
2013-02-03 20:11:00,26.0,24.0,29.85,West,260,2.0,-999.0,91,-99.99,,,-99.99,,2013-02-04 01:11:00,
2013-02-03 20:21:00,26.0,24.0,29.85,West,260,2.0,-999.0,91,-99.99,,,-99.99,,2013-02-04 01:21:00,
2013-02-03 20:32:00,27.0,24.0,29.84,WSW,257,4.0,-999.0,90,-99.99,,,-99.99,,2013-02-04 01:32:00,
2013-02-03 20:42:00,27.0,24.0,29.84,WSW,257,4.0,-999.0,90,-99.99,,,-99.99,,2013-02-04 01:42:00,
2013-02-03 20:52:00,27.0,24.0,29.85,WSW,254,4.0,-999.0,90,-99.99,,,-99.99,,2013-02-04 01:52:00,
2013-02-03 21:02:00,27.0,24.0,29.85,WSW,254,2.0,-999.0,89,-99.99,,,-99.99,,2013-02-04 02:02:00,
2013-02-03 21:11:00,27.0,24.0,29.85,WSW,254,2.0,-999.0,89,-99.99,,,-99.99,,2013-02-04 02:11:00,
2013-02-03 21:21:00,27.0,24.0,29.85,WSW,249,5.0,-999.0,89,-99.99,,,-99.99,,2013-02-04 02:21:00,
2013-02-03 21:32:00,27.0,24.0,29.85,SW,221,6.0,-999.0,89,-99.99,,,-99.99,,2013-02-04 02:32:00,
2013-02-03 21:42:00,27.0,24.0,29.85,SW,221,6.0,-999.0,89,-99.99,,,-99.99,,2013-02-04 02:42:00,
2013-02-03 21:52:00,27.0,24.0,29.85,SW,221,2.0,-999.0,89,-99.99,,,-99.99,,2013-02-04 02:52:00,
2013-02-03 22:02:00,27.0,25.0,29.85,WNW,288,7.0,-999.0,91,-99.99,,,-99.99,,2013-02-04 03:02:00,
2013-02-03 22:11:00,27.0,25.0,29.85,WNW,288,7.0,-999.0,91,-99.99,,,-99.99,,2013-02-04 03:11:00,
2013-02-03 22:21:00,27.0,25.0,29.86,West,262,4.0,-999.0,92,-99.99,,,-99.99,,2013-02-04 03:21:00,
2013-02-03 22:32:00,27.0,25.0,29.87,West,267,7.0,-999.0,93,-99.99,,,-99.99,,2013-02-04 03:32:00,
2013-02-03 22:42:00,27.0,25.0,29.87,West,267,7.0,-999.0,93,-99.99,,,-99.99,,2013-02-04 03:42:00,
2013-02-03 22:51:00,27.0,26.0,29.87,West,281,10.0,-999.0,94,-99.99,,,-99.99,,2013-02-04 03:51:00,
2013-02-03 23:02:00,27.0,26.0,29.88,West,264,11.0,-999.0,94,-99.99,,,-99.99,,2013-02-04 04:02:00,
2013-02-03 23:11:00,27.0,26.0,29.88,West,264,11.0,-999.0,94,-99.99,,,-99.99,,2013-02-04 04:11:00,
2013-02-03 23:21:00,26.0,24.0,29.88,WNW,292,16.0,-999.0,93,-99.99,,,-99.99,,2013-02-04 04:21:00,
2013-02-03 23:32:00,26.0,21.0,29.89,WNW,297,17.0,-999.0,81,-99.99,,,-99.99,,2013-02-04 04:32:00,
2013-02-03 23:42:00,26.0,21.0,29.89,WNW,297,17.0,-999.0,81,-99.99,,,-99.99,,2013-02-04 04:42:00,
2013-02-03 23:52:00,26.0,22.0,29.90,WNW,300,14.0,-999.0,84,-99.99,,,-99.99,,2013-02-04 04:52:00,